Vorticity
10 10 10 10 10 9 9 8 8 8 8 7 7 7 8 8 8 8 8 8 7 7 7 7 6 6 6 6 5 5 5 4 4 4 4 4 4 4 4 4 5 5 5 6 6 7 7 8 8 8 8 8 8 8 8 8 8 7 7 7 7 7 7 7 7 8 9 11 12
10 10 10 10 10 9 9 8 8 7 7 7 7 7 7 8 7 7 7 7 7 7 7 7 6 6 6 5 5 5 4 4 4 4 4 4 4 4 4 5 5 5 5 5 6 6 7 7 7 8 8 8 8 8 8 8 8 8 7 7 7 7 7 7 7 7 7 8 10
9 10 10 10 10 10 9 9 8 7 7 7 7 7 7 7 7 7 7 7 7 7 7 6 6 6 6 5 5 5 4 4 4 4 4 5 5 5 5 5 5 5 6 6 6 6 6 7 7 7 8 8 8 8 8 8 8 8 8 7 7 7 7 7 7 6 7 7 7
9 9 9 10 10 10 10 9 8 7 7 6 6 6 7 7 7 7 7 7 7 7 7 6 6 6 6 5 5 5 5 5 4 4 5 5 5 5 5 5 5 6 6 6 6 6 6 7 7 7 8 8 8 8 8 8 8 8 8 8 7 7 7 7 6 6 6 6 6
8 8 8 9 9 9 9 9 8 8 7 6 6 6 6 7 7 7 7 7 7 7 7 6 6 6 6 5 5 5 5 5 5 4 4 5 5 5 5 5 6 6 6 6 6 6 7 7 7 7 8 8 8 8 9 8 8 8 8 8 8 8 7 7 7 6 6 6 6
7 7 7 8 8 8 9 9 9 8 7 6 6 6 6 6 7 7 7 8 7 7 7 6 6 6 6 5 5 5 5 5 5 4 4 4 4 4 5 5 5 5 6 6 6 6 7 7 7 7 7 7 8 8 9 9 9 8 8 8 8 8 8 8 7 7 6 6 6
6 6 6 6 7 7 8 8 8 8 8 7 7 6 6 6 7 7 7 7 7 7 7 7 6 6 6 5 5 5 5 4 4 4 4 4 4 4 4 4 4 5 5 5 6 6 7 7 7 7 7 7 8 8 8 9 9 9 9 9 9 8 8 8 8 8 7 7 6
6 6 6 6 6 6 7 7 8 8 8 8 7 7 6 6 7 7 7 7 8 7 7 7 7 6 6 5 5 5 4 4 4 4 4 4 3 3 4 3 4 4 4 5 5 6 6 7 7 7 7 7 7 8 8 8 9 9 9 9 9 9 9 8 8 8 8 8 7
7 6 6 6 5 6 6 7 7 8 8 8 8 7 7 6 7 7 7 8 8 7 7 7 7 6 6 5 5 5 4 4 4 4 4 4 3 3 3 3 3 3 4 4 5 5 5 6 7 7 7 7 7 8 8 8 8 9 9 9 10 10 10 9 9 8 8 8 8
7 7 7 6 6 6 6 6 7 8 8 8 8 7 7 7 7 7 7 7 7 7 8 7 7 6 6 6 5 5 5 4 4 4 4 4 4 3 3 3 3 3 4 4 4 5 5 5 6 6 7 7 7 7 7 8 8 9 9 9 9 10 10 10 10 9 9 8 8
8 8 8 8 7 7 6 6 7 7 8 8 8 8 7 7 7 7 7 7 7 8 8 7 7 6 6 6 5 5 5 4 4 4 4 4 4 4 4 4 4 4 4 4 4 5 5 5 5 6 6 6 7 7 7 8 8 8 8 9 9 9 10 10 10 10 10 9 9
8 9 9 9 8 8 7 6 7 7 8 8 8 8 8 7 7 7 7 7 8 8 8 7 7 7 6 6 6 5 5 5 5 5 4 4 4 4 4 4 4 4 5 5 5 5 5 5 5 5 5 6 6 6 6 6 7 8 8 8 9 9 9 10 10 10 10 10 10
9 9 9 9 9 9 8 7 7 7 8 8 9 8 8 8 7 7 7 7 7 7 7 8 8 7 7 6 6 6 6 5 5 5 5 5 5 5 5 5 5 5 5 5 5 5 6 6 6 6 5 5 6 6 6 6 6 7 7 7 8 9 9 9 9 10 10 11 11
9 9 10 10 10 9 9 8 7 7 8 8 9 9 8 8 8 7 7 7 7 7 7 8 8 8 7 7 6 6 6 6 6 6 6 5 5 6 6 6 6 6 6 6 6 6 6 6 6 6 6 6 6 6 6 6 6 6 6 6 7 8 8 8 8 9 9 10 10
10 10 10 10 10 10 10 9 8 8 8 8 9 9 9 9 8 8 7 7 7 7 8 8 8 8 8 8 7 7 6 6 6 6 6 6 6 6 6 6 7 7 7 6 7 7 7 7 7 7 7 6 6 6 6 6 6 6 6 6 6 7 7 7 7 8 8 9 9
10 10 10 10 11 11 10 10 9 8 8 8 9 9 9 9 8 8 8 8 8 8 8 9 8 8 8 9 8 7 7 7 7 7 7 6 6 7 7 7 7 7 7 7 7 7 7 7 7 7 7 7 6 6 6 6 6 6 6 6 6 6 6 7 7 7 8 8 8
10 10 10 10 11 11 11 10 10 9 8 8 9 9 9 9 9 9 8 8 8 8 9 9 9 8 8 9 8 8 8 7 8 7 7 7 7 7 7 7 7 7 7 7 7 7 7 7 7 7 7 7 6 6 6 6 6 7 7 7 7 7 7 7 7 7 7 7 8
9 10 10 10 11 11 11 10 10 9 9 9 9 9 9 9 9 9 9 9 9 9 9 9 9 9 9 8 8 8 8 8 8 8 8 7 7 7 7 7 7 7 7 7 7 7 7 7 7 7 7 7 6 6 6 6 6 7 7 7 7 7 7 7 8 8 8 8 8
9 9 10 10 10 10 10 10 10 9 9 9 9 9 10 10 9 9 9 9 9 9 9 8 9 9 9 8 8 8 8 8 7 7 8 7 7 7 7 7 7 7 7 7 7 7 7 7 7 7 7 7 7 6 6 6 6 6 7 7 7 8 8 8 8 8 8 9 8
8 9 9 9 10 10 10 10 9 9 9 9 9 9 9 10 9 9 9 9 9 9 9 9 9 9 9 9 8 8 8 8 7 7 7 7 7 7 7 7 7 7 7 7 7 7 7 7 7 7 7 7 7 7 7 7 7 7 7 7 8 8 8 8 8 9 9 9 9
8 8 8 9 9 9 9 9 9 9 9 9 9 9 9 9 9 9 9 9 9 9 9 9 9 9 8 8 8 8 8 7 7 7 7 7 7 7 7 7 7 7 7 7 6 6 6 6 6 7 7 7 7 7 7 7 7 8 8 8 8 8 8 8 8 9 9 9 9
7 7 7 8 8 8 8 9 9 9 9 9 9 9 9 9 9 9 9 9 9 10 10 9 9 9 8 8 8 7 7 7 7 7 7 7 7 7 7 7 7 6 6 6 6 6 6 6 6 7 7 7 7 7 7 7 7 7 7 8 8 8 8 8 8 8 8 7 8
6 6 6 7 7 8 8 8 8 8 9 9 9 9 9 9 9 8 8 9 10 10 10 10 9 9 8 8 8 7 7 7 7 7 7 7 7 7 7 7 7 7 6 6 6 6 6 6 6 7 7 7 6 6 6 6 6 6 6 7 7 7 7 7 7 6 6 6 6
5 6 6 6 7 7 7 8 8 8 8 9 9 9 10 10 9 9 9 10 10 11 11 10 9 9 8 8 8 7 7 6 6 7 7 7 7 7 7 8 7 7 6 6 6 6 5 5 5 6 6 6 6 6 6 6 5 5 5 5 6 6 6 6 6 6 5 5 5
5 6 6 6 7 7 7 7 8 8 8 8 9 10 10 11 10 10 9 10 11 11 11 10 10 9 8 8 8 7 7 6 6 6 6 7 7 8 8 8 7 7 6 6 6 6 6 6 5 5 5 5 5 5 5 6 5 5 5 5 5 5 6 6 7 7 6 6 6
6 6 6 6 6 7 7 7 7 8 8 8 9 10 11 11 11 10 10 10 11 11 11 11 10 9 9 8 7 7 7 7 7 7 7 7 7 8 8 8 7 7 7 6 6 6 6 6 6 5 4 4 4 4 5 5 6 6 6 6 5 5 5 5 6 7 7 7 6
6 6 6 6 7 7 7 7 7 7 8 8 9 10 10 11 11 11 10 10 11 11 11 11 10 9 8 7 7 7 7 7 7 7 7 7 7 7 7 7 7 7 7 6 6 6 6 6 6 6 5 4 4 4 4 5 5 6 6 6 6 5 5 4 4 5 5 6 6
6 6 6 6 6 7 7 7 7 8 8 8 8 9 10 11 11 11 10 10 10 11 11 11 10 9 8 7 7 7 7 7 7 7 7 7 7 7 7 7 7 7 7 6 6 7 7 7 6 6 5 5 5 5 5 5 6 6 6 6 6 5 5 4 3 3 3 4 4
5 6 6 6 6 7 7 7 8 7 7 7 8 9 10 10 11 10 10 10 10 11 11 10 9 9 8 8 7 7 7 8 8 7 7 7 7 7 8 8 7 7 7 7 7 7 7 7 6 6 5 5 5 6 6 6 6 6 6 6 6 5 4 4 3 2 2 2 2
5 5 5 6 6 7 7 7 7 7 7 7 8 9 10 10 10 10 10 10 11 11 10 9 9 9 9 8 7 7 7 7 7 7 6 6 7 7 8 8 8 7 7 7 7 7 6 6 5 5 5 5 5 5 5 6 6 6 6 6 6 5 5 4 3 2 1 1 1
5 5 5 6 6 6 7 7 7 7 7 8 8 9 9 10 10 10 10 10 10 10 9 10 10 10 9 8 8 7 7 7 6 6 6 6 7 7 8 8 8 7 7 7 6 6 5 5 4 3 3 3 4 4 5 5 6 7 7 7 7 6 5 5 4 4 3 3 3
5 5 5 6 6 7 7 7 7 8 8 8 9 9 9 10 10 10 10 10 9 9 9 10 10 10 9 9 9 8 8 7 6 6 6 6 7 7 7 8 7 7 7 6 6 5 5 4 3 2 2 2 3 3 4 5 6 7 8 8 8 7 7 7 6 6 6 6 6
5 5 6 6 7 7 8 8 8 8 8 9 9 9 9 9 9 9 9 9 9 10 10 10 10 10 10 9 9 9 8 7 6 6 5 6 6 7 7 7 7 7 6 6 5 5 4 3 2 2 1 1 2 3 4 5 6 7 8 9 9 8 8 8 8 8 8 8 8
6 6 6 7 7 8 8 8 8 9 9 9 9 9 9 9 9 9 9 9 10 10 10 11 11 11 10 10 9 9 8 7 6 5 5 5 6 6 7 7 7 7 6 6 5 4 4 3 2 1 1 1 2 2 3 4 6 7 7 8 8 8 8 7 7 7 7 7 7
6 6 7 7 8 9 9 9 9 9 10 10 10 10 10 10 10 10 10 10 10 11 11 12 13 12 12 11 10 10 9 8 6 5 5 5 5 6 7 7 7 7 6 6 5 4 4 3 2 2 2 2 2 3 4 4 4 5 5 6 6 6 6 6 6 5 5 5 5
7 7 8 8 9 9 9 9 10 10 10 10 10 10 10 10 10 10 10 10 10 11 12 13 13 13 13 12 11 10 9 7 6 5 4 4 5 6 7 7 7 7 7 6 5 5 4 4 3 3 3 3 4 4 4 4 4 4 4 5 5 5 5 5 4 4 4 4 4
8 8 9 9 10 10 10 10 10 10 10 11 11 11 10 10 10 10 10 10 11 12 13 13 13 14 13 12 11 10 9 7 6 4 4 5 6 7 7 7 8 8 8 7 6 5 5 4 4 4 4 4 5 5 5 4 3 3 3 4 4 4 4 4 4 3 3 3 3
10 10 10 10 10 10 10 10 10 11 11 12 12 12 11 11 11 11 11 11 12 12 12 13 13 12 12 10 9 9 8 7 6 5 5 6 8 8 9 9 9 9 8 7 6 6 5 5 5 5 5 5 5 5 4 3 2 2 2 3 3 3 3 3 3 3 3 3 3
11 11 11 11 11 11 11 12 12 13 13 13 13 13 12 12 11 11 11 11 11 11 11 11 10 9 9 8 7 7 8 8 8 8 8 9 10 11 10 10 9 9 8 7 6 5 5 5 5 5 4 4 4 3 3 2 1 1 1 1 2 2 3 3 3 3 3 3 2
11 12 12 12 12 12 13 14 15 15 14 14 13 12 11 11 10 10 10 10 10 10 9 9 8 8 7 7 7 8 8 9 10 11 11 11 11 11 11 10 9 8 7 6 5 5 5 4 4 3 2 2 2 2 1 0 0 0 1 1 2 2 2 3 3 3 2 2 1
12 12 13 13 14 15 15 15 14 13 12 11 10 10 9 9 9 10 10 11 11 11 11 10 10 9 9 10 9 10 10 10 11 11 11 10 10 10 9 9 8 7 7 6 6 5 4 3 2 1 1 1 2 2 1 1 1 1 1 1 2 2 2 2 3 2 2 2 2
Height
5653 5653 5653 5652 5652 5652 5652 5652 5652 5652 5652 5652 5653 5653 5653 5654 5654 5654 5654 5655 5655 5655 5655 5655 5655 5655 5655 5655 5655 5655 5654 5654 5654 5654 5654 5654 5654 5654 5654 5654 5654 5653 5653 5653 5653 5653 5653 5653 5653 5653 5653 5652 5652 5652 5652 5652 5651 5651 5651 5651 5651 5651 5651 5651 5651 5651 5651 5651 5651
5650 5650 5650 5650 5649 5649 5649 5649 5649 5649 5649 5649 5649 5650 5650 5651 5651 5651 5652 5652 5652 5652 5652 5652 5652 5652 5652 5652 5652 5652 5652 5652 5652 5652 5652 5652 5652 5651 5651 5651 5651 5651 5651 5651 5651 5651 5651 5651 5651 5650 5650 5650 5650 5650 5650 5649 5649 5649 5649 5649 5649 5649 5649 5649 5649 5649 5649 5649 5649
5647 5647 5647 5647 5647 5647 5646 5646 5646 5646 5646 5646 5646 5647 5647 5648 5648 5648 5648 5648 5649 5649 5649 5649 5649 5649 5649 5649 5649 5649 5649 5649 5649 5649 5649 5649 5649 5649 5648 5648 5648 5648 5648 5648 5648 5648 5648 5648 5648 5648 5648 5648 5648 5648 5648 5647 5647 5647 5647 5647 5647 5647 5647 5647 5647 5647 5647 5647 5647
5644 5645 5645 5644 5644 5644 5644 5643 5643 5643 5643 5643 5643 5643 5644 5644 5645 5645 5645 5645 5646 5646 5646 5646 5646 5646 5646 5646 5646 5646 5646 5646 5646 5646 5646 5646 5646 5646 5646 5646 5646 5646 5646 5646 5646 5646 5646 5646 5646 5646 5646 5646 5646 5645 5645 5645 5645 5645 5645 5644 5644 5644 5644 5644 5644 5644 5644 5644 5645
5641 5642 5642 5642 5642 5642 5641 5641 5641 5640 5640 5640 5640 5640 5641 5641 5642 5642 5642 5643 5643 5643 5643 5643 5643 5643 5643 5643 5643 5643 5643 5643 5643 5643 5643 5643 5643 5643 5643 5643 5643 5643 5643 5643 5643 5643 5643 5643 5643 5643 5643 5643 5643 5643 5643 5643 5643 5643 5643 5642 5642 5642 5642 5642 5642 5642 5642 5642 5642
5638 5638 5639 5639 5639 5639 5638 5638 5638 5638 5637 5637 5637 5637 5637 5638 5638 5639 5639 5639 5639 5640 5640 5640 5640 5640 5640 5640 5640 5640 5640 5640 5640 5640 5640 5640 5640 5640 5640 5640 5640 5640 5640 5640 5640 5640 5640 5640 5640 5640 5640 5640 5640 5640 5640 5640 5640 5640 5640 5640 5640 5640 5640 5639 5639 5639 5639 5639 5639
5634 5635 5636 5636 5636 5636 5636 5636 5635 5635 5634 5634 5633 5634 5634 5635 5635 5636 5636 5636 5637 5637 5637 5637 5637 5637 5637 5637 5637 5637 5637 5637 5637 5637 5637 5637 5637 5637 5637 5637 5637 5637 5637 5637 5637 5637 5637 5637 5637 5637 5637 5638 5638 5638 5638 5638 5638 5638 5638 5638 5638 5638 5637 5637 5637 5637 5637 5637 5637
5631 5632 5632 5633 5633 5633 5633 5633 5633 5632 5631 5631 5631 5631 5631 5631 5632 5633 5633 5633 5633 5633 5634 5634 5634 5634 5634 5634 5634 5634 5634 5634 5634 5634 5634 5634 5634 5634 5634 5634 5634 5634 5634 5634 5634 5634 5634 5634 5634 5634 5634 5634 5634 5634 5634 5635 5635 5635 5635 5635 5635 5635 5635 5635 5635 5635 5635 5635 5635
5627 5628 5629 5629 5630 5630 5630 5630 5630 5629 5628 5628 5628 5628 5628 5628 5629 5629 5630 5630 5630 5630 5631 5631 5631 5631 5631 5631 5631 5631 5631 5631 5631 5631 5631 5631 5631 5631 5631 5631 5631 5631 5631 5631 5631 5631 5631 5631 5631 5631 5631 5631 5631 5631 5631 5631 5632 5632 5632 5632 5632 5632 5632 5632 5632 5632 5632 5632 5632
5623 5624 5625 5625 5626 5627 5627 5627 5627 5626 5626 5625 5624 5624 5624 5625 5625 5626 5627 5627 5627 5627 5627 5628 5628 5628 5628 5628 5628 5628 5628 5628 5628 5628 5628 5628 5628 5628 5628 5628 5628 5628 5628 5628 5628 5628 5628 5628 5628 5628 5628 5628 5628 5628 5628 5628 5628 5628 5628 5629 5629 5629 5629 5629 5629 5629 5629 5629 5630
5619 5620 5621 5621 5622 5623 5623 5624 5623 5623 5623 5622 5621 5621 5621 5621 5622 5623 5623 5623 5624 5624 5624 5624 5624 5624 5624 5624 5624 5624 5625 5625 5625 5625 5625 5625 5625 5625 5625 5625 5625 5625 5625 5625 5625 5625 5625 5625 5625 5625 5625 5625 5625 5625 5625 5625 5625 5625 5625 5625 5625 5626 5626 5626 5626 5626 5627 5627 5627
5616 5616 5617 5617 5618 5619 5620 5620 5620 5620 5619 5619 5618 5618 5618 5618 5618 5619 5620 5620 5620 5620 5621 5621 5621 5621 5621 5621 5621 5621 5621 5621 5621 5622 5622 5622 5622 5622 5622 5622 5622 5622 5622 5622 5622 5622 5622 5622 5622 5622 5622 5622 5622 5622 5622 5622 5622 5622 5622 5622 5622 5622 5622 5622 5623 5623 5623 5623 5623
5612 5612 5613 5613 5614 5614 5615 5616 5617 5617 5616 5615 5615 5615 5615 5615 5615 5616 5616 5617 5617 5617 5617 5617 5617 5618 5618 5618 5618 5618 5618 5618 5618 5618 5618 5618 5618 5618 5619 5619 5619 5618 5618 5618 5618 5618 5618 5618 5619 5619 5619 5619 5619 5619 5619 5619 5619 5619 5619 5619 5619 5619 5619 5619 5619 5619 5619 5620 5620
5608 5608 5609 5609 5610 5610 5611 5612 5613 5613 5613 5612 5612 5611 5611 5611 5612 5612 5613 5613 5613 5613 5614 5614 5614 5614 5614 5614 5614 5614 5614 5614 5614 5614 5615 5615 5615 5615 5615 5615 5615 5615 5615 5615 5615 5615 5615 5615 5615 5615 5615 5615 5615 5615 5615 5615 5616 5616 5616 5616 5616 5616 5616 5616 5616 5616 5616 5616 5616
5604 5605 5605 5605 5606 5606 5607 5608 5608 5609 5609 5609 5608 5608 5608 5608 5608 5608 5609 5609 5610 5610 5610 5610 5610 5610 5610 5610 5610 5610 5611 5611 5611 5611 5611 5611 5611 5611 5612 5612 5612 5612 5612 5612 5611 5611 5611 5611 5611 5611 5611 5612 5612 5612 5612 5612 5612 5612 5612 5612 5612 5612 5613 5612 5612 5613 5613 5613 5613
5601 5601 5601 5601 5602 5602 5603 5603 5604 5605 5605 5605 5605 5604 5604 5604 5604 5605 5605 5606 5606 5606 5607 5607 5607 5607 5607 5607 5607 5607 5607 5607 5607 5607 5607 5608 5608 5608 5608 5608 5608 5608 5608 5608 5608 5608 5608 5608 5608 5608 5608 5608 5608 5608 5608 5608 5608 5608 5608 5608 5608 5608 5608 5609 5609 5609 5609 5609 5609
5597 5597 5598 5598 5598 5598 5599 5599 5600 5600 5601 5601 5601 5601 5601 5601 5601 5601 5602 5602 5603 5603 5603 5603 5603 5603 5603 5603 5603 5603 5603 5603 5603 5603 5603 5604 5604 5604 5604 5604 5604 5604 5604 5604 5604 5604 5604 5604 5604 5604 5604 5604 5604 5604 5604 5604 5604 5604 5604 5604 5604 5604 5604 5604 5605 5605 5605 5605 5606
5594 5594 5594 5594 5594 5594 5595 5595 5596 5596 5597 5597 5598 5598 5597 5597 5597 5598 5598 5598 5599 5599 5599 5599 5599 5599 5599 5599 5599 5599 5599 5599 5599 5600 5600 5600 5600 5600 5600 5600 5600 5600 5601 5600 5600 5600 5600 5600 5600 5600 5600 5600 5600 5600 5600 5600 5600 5600 5600 5600 5600 5600 5600 5600 5600 5601 5601 5601 5601
5590 5590 5590 5590 5590 5591 5591 5591 5592 5592 5593 5593 5594 5594 5594 5593 5593 5594 5594 5595 5595 5595 5596 5596 5596 5596 5596 5596 5596 5596 5596 5596 5596 5596 5596 5596 5596 5596 5596 5597 5597 5597 5597 5597 5597 5597 5597 5597 5597 5597 5597 5596 5596 5596 5596 5596 5596 5596 5596 5596 5596 5596 5596 5596 5596 5596 5596 5596 5597
5587 5587 5587 5587 5587 5587 5587 5588 5588 5588 5589 5589 5590 5590 5590 5590 5590 5590 5590 5591 5591 5592 5592 5592 5592 5592 5592 5592 5592 5592 5592 5592 5592 5592 5592 5592 5592 5592 5593 5593 5593 5593 5593 5593 5593 5593 5593 5593 5593 5593 5593 5593 5593 5593 5592 5592 5592 5592 5592 5592 5592 5592 5592 5592 5592 5592 5592 5592 5592
5583 5583 5583 5583 5583 5583 5583 5584 5584 5584 5585 5585 5586 5586 5586 5586 5586 5586 5587 5587 5587 5588 5588 5588 5588 5588 5588 5588 5588 5588 5588 5588 5588 5588 5588 5588 5588 5588 5588 5589 5589 5589 5589 5589 5589 5589 5589 5589 5589 5589 5589 5589 5589 5588 5588 5588 5588 5588 5588 5588 5588 5587 5587 5587 5587 5587 5587 5587 5587
5579 5579 5579 5579 5579 5579 5580 5580 5580 5580 5581 5581 5582 5582 5583 5583 5583 5583 5583 5583 5583 5584 5584 5584 5584 5584 5584 5584 5584 5584 5584 5584 5584 5584 5584 5584 5584 5584 5584 5585 5585 5585 5585 5585 5585 5585 5585 5585 5585 5585 5585 5585 5585 5585 5584 5584 5584 5584 5584 5583 5583 5583 5583 5583 5583 5583 5583 5582 5582
5576 5576 5576 5576 5576 5576 5576 5576 5576 5577 5577 5577 5578 5578 5579 5579 5579 5579 5579 5579 5579 5580 5580 5580 5580 5580 5580 5580 5580 5580 5580 5580 5580 5580 5580 5580 5580 5580 5580 5581 5581 5581 5581 5581 5582 5582 5582 5582 5581 5581 5581 5581 5581 5581 5581 5580 5580 5580 5580 5579 5579 5579 5578 5578 5578 5578 5578 5578 5578
5572 5572 5572 5572 5572 5572 5572 5573 5573 5573 5573 5573 5573 5574 5575 5575 5575 5575 5575 5575 5575 5576 5576 5576 5576 5576 5577 5577 5576 5576 5576 5576 5576 5576 5576 5576 5576 5576 5576 5576 5576 5577 5577 5577 5577 5577 5578 5578 5578 5578 5578 5578 5577 5577 5577 5576 5576 5576 5576 5575 5575 5574 5574 5574 5573 5573 5573 5573 5573
5568 5568 5568 5568 5568 5568 5568 5568 5569 5569 5569 5569 5569 5570 5570 5571 5571 5571 5571 5571 5572 5572 5572 5572 5572 5573 5573 5573 5573 5572 5572 5572 5572 5572 5572 5572 5572 5572 5572 5572 5572 5572 5572 5573 5573 5573 5573 5573 5573 5573 5574 5574 5573 5573 5573 5572 5572 5572 5571 5571 5571 5570 5570 5569 5569 5569 5568 5568 5568
5564 5564 5564 5564 5564 5564 5564 5565 5565 5565 5565 5565 5565 5566 5566 5567 5567 5567 5567 5567 5568 5568 5568 5568 5568 5568 5568 5568 5568 5568 5568 5568 5568 5568 5568 5568 5568 5568 5568 5568 5568 5568 5568 5568 5568 5568 5568 5569 5569 5569 5570 5570 5570 5569 5569 5568 5568 5568 5567 5567 5566 5566 5566 5565 5565 5564 5564 5563 5563
5560 5560 5560 5560 5560 5560 5560 5561 5561 5561 5561 5561 5561 5562 5562 5563 5563 5563 5563 5563 5563 5564 5564 5564 5564 5564 5564 5564 5564 5564 5564 5564 5564 5563 5563 5563 5563 5563 5563 5563 5563 5563 5563 5563 5563 5563 5564 5564 5564 5565 5565 5566 5566 5565 5565 5565 5564 5563 5563 5563 5562 5562 5561 5561 5560 5560 5559 5559 5558
5556 5556 5556 5556 5556 5556 5556 5557 5557 5557 5557 5557 5557 5558 5558 5558 5558 5559 5559 5559 5559 5560 5560 5560 5560 5560 5560 5560 5560 5560 5560 5559 5559 5559 5559 5559 5559 5558 5558 5558 5558 5558 5558 5558 5558 5558 5559 5559 5559 5560 5560 5561 5561 5561 5561 5560 5560 5559 5559 5558 5558 5558 5557 5557 5556 5556 5555 5555 5554
5552 5552 5552 5552 5552 5552 5552 5553 5553 5553 5553 5553 5553 5553 5554 5554 5554 5554 5555 5555 5555 5555 5556 5556 5556 5556 5556 5556 5555 5555 5555 5555 5555 5555 5554 5554 5554 5554 5554 5553 5553 5553 5553 5553 5553 5553 5554 5554 5554 5555 5555 5556 5556 5556 5556 5556 5556 5555 5555 5554 5553 5553 5553 5552 5552 5551 5551 5550 5550
5548 5548 5548 5548 5548 5548 5548 5548 5548 5548 5548 5549 5549 5549 5550 5550 5550 5550 5551 5551 5551 5551 5551 5552 5552 5552 5551 5551 5551 5551 5551 5550 5550 5550 5550 5550 5549 5549 5549 5548 5548 5548 5548 5548 5548 5548 5549 5549 5549 5550 5550 5550 5551 5551 5551 5551 5551 5550 5550 5549 5549 5548 5548 5548 5547 5547 5546 5545 5545
5543 5543 5543 5543 5543 5544 5544 5544 5544 5544 5544 5544 5545 5545 5545 5546 5546 5546 5547 5547 5547 5547 5547 5547 5547 5547 5547 5547 5547 5546 5546 5546 5545 5545 5545 5545 5545 5544 5544 5544 5543 5543 5543 5543 5543 5543 5543 5544 5544 5544 5545 5545 5545 5545 5545 5545 5545 5545 5545 5544 5544 5543 5543 5542 5542 5541 5541 5540 5540
5539 5539 5539 5539 5539 5539 5539 5540 5540 5540 5540 5540 5541 5541 5541 5542 5542 5542 5542 5542 5542 5543 5543 5543 5543 5543 5542 5542 5542 5542 5541 5541 5541 5541 5540 5540 5540 5540 5539 5539 5538 5538 5538 5538 5538 5538 5538 5538 5538 5539 5539 5539 5540 5540 5540 5540 5539 5539 5539 5539 5538 5538 5537 5537 5536 5536 5535 5534 5534
5534 5534 5535 5535 5535 5535 5535 5535 5535 5535 5536 5536 5536 5537 5537 5538 5538 5538 5538 5538 5538 5538 5538 5538 5538 5538 5538 5538 5537 5537 5537 5536 5536 5536 5535 5535 5535 5535 5534 5534 5533 5533 5533 5533 5533 5533 5533 5533 5533 5533 5533 5533 5534 5534 5534 5534 5533 5533 5533 5533 5532 5532 5531 5531 5530 5529 5529 5528 5528
5530 5530 5530 5530 5531 5531 5531 5531 5531 5531 5532 5532 5532 5533 5533 5533 5533 5533 5533 5533 5533 5533 5533 5533 5533 5533 5533 5533 5533 5532 5532 5531 5531 5531 5531 5530 5530 5530 5530 5529 5528 5528 5528 5528 5528 5527 5527 5527 5527 5527 5528 5528 5528 5528 5528 5528 5528 5528 5527 5527 5526 5526 5525 5524 5524 5523 5523 5522 5521
5525 5526 5526 5526 5526 5526 5526 5526 5527 5527 5527 5528 5528 5528 5529 5529 5529 5529 5529 5529 5529 5529 5529 5528 5528 5528 5528 5528 5528 5527 5527 5526 5526 5526 5526 5526 5526 5526 5525 5525 5524 5523 5523 5523 5522 5522 5522 5522 5522 5521 5522 5522 5522 5522 5522 5522 5521 5521 5521 5521 5520 5519 5519 5518 5518 5517 5516 5516 5515
5521 5521 5522 5522 5522 5522 5522 5522 5523 5523 5523 5523 5524 5524 5524 5524 5524 5524 5524 5524 5524 5524 5524 5524 5524 5523 5523 5523 5523 5522 5522 5522 5521 5521 5521 5521 5521 5521 5521 5520 5519 5518 5518 5517 5517 5517 5516 5516 5516 5515 5515 5515 5516 5515 5515 5515 5515 5515 5515 5514 5514 5513 5513 5512 5512 5511 5510 5509 5508
5517 5517 5517 5518 5518 5518 5518 5518 5518 5519 5519 5519 5519 5520 5520 5520 5520 5519 5519 5519 5519 5519 5519 5519 5519 5519 5518 5518 5518 5517 5517 5517 5517 5516 5516 5516 5516 5517 5516 5516 5514 5513 5513 5512 5512 5511 5511 5510 5510 5509 5509 5509 5509 5509 5509 5509 5509 5509 5508 5508 5508 5507 5507 5506 5506 5505 5504 5503 5502
5513 5513 5513 5513 5514 5514 5514 5514 5514 5514 5514 5515 5515 5515 5515 5515 5515 5514 5514 5514 5514 5514 5514 5514 5514 5514 5513 5513 5513 5513 5512 5512 5512 5512 5512 5511 5512 5512 5512 5511 5510 5508 5508 5507 5506 5506 5505 5505 5504 5504 5503 5503 5503 5503 5503 5503 5503 5503 5502 5502 5501 5501 5501 5500 5500 5499 5498 5497 5496
5508 5509 5509 5509 5509 5510 5510 5510 5510 5510 5510 5510 5510 5510 5510 5510 5510 5510 5509 5509 5510 5509 5509 5509 5509 5508 5508 5508 5508 5508 5507 5507 5507 5507 5507 5507 5507 5506 5506 5506 5505 5503 5503 5502 5501 5500 5499 5499 5498 5498 5498 5497 5497 5497 5497 5497 5497 5496 5496 5495 5495 5495 5494 5494 5494 5493 5492 5491 5490
5504 5504 5505 5505 5505 5505 5505 5505 5505 5505 5505 5505 5505 5505 5505 5505 5505 5505 5505 5505 5505 5504 5504 5504 5504 5503 5503 5503 5503 5503 5503 5503 5503 5502 5502 5502 5502 5501 5501 5501 5500 5498 5498 5497 5496 5495 5494 5493 5493 5492 5492 5491 5491 5490 5490 5490 5490 5490 5489 5489 5489 5489 5488 5488 5488 5487 5486 5485 5483
5499 5500 5500 5500 5500 5500 5501 5501 5500 5500 5501 5501 5501 5501 5501 5501 5500 5500 5500 5500 5500 5499 5499 5499 5499 5498 5498 5498 5498 5498 5498 5498 5498 5497 5497 5497 5497 5496 5496 5495 5494 5493 5493 5492 5491 5490 5489 5488 5487 5487 5486 5485 5484 5484 5483 5483 5483 5483 5483 5482 5482 5482 5482 5481 5481 5480 5479 5478 5476